Location: Esterri de Aneo
(42.6284°N, 1.1223°E)
Time: 02:25:38
(UTC+00:00)

Cosmos 2279 Rocket - Pass Details

Date: 11 December 2025
Orbit: 963 x 977 km, 82.9° (Epoch: 17 January)

Event Time Altitude Azimuth Distance (km) Brightness Sun altitude
Rises 17:00:46 0° 194° (SSW) 3,642 7.6 -7.1°
Reaches altitude 10° 17:03:16 10° 197° (SSW) 2,701 7.0 -7.5°
Maximum altitude 17:09:25 67° 279° (W) 1,049 4.4 -8.6°
Drops below altitude 10° 17:15:39 10° 3° (N) 2,728 6.1 -9.6°
Sets 17:18:12 0° 6° (N) 3,682 6.7 -10.1°
